This is the latest recevied weather packets stored in our database for station/object WA0LM. If no packets are shown the sender has not sent any weather packets the latest 10 day(s).
| Time | Temp. | Humidity | Pressure | Rain* | Wind** | Luminosity | Snow |
|---|---|---|---|---|---|---|---|
| 1777842441 | 18.33° C | 38% | 1004 hPa | 0 mm | - | 574 W/m² | - |
| 1777842139 | 18.33° C | 38% | 1003.9 hPa | 0 mm | - | 587 W/m² | - |
| 1777841834 | 18.33° C | 38% | 1003.9 hPa | 0 mm | - | 596 W/m² | - |
| 1777841530 | 18.33° C | 34% | 1004 hPa | 0 mm | - | 586 W/m² | - |
| 1777841227 | 18.33° C | 34% | 1004.1 hPa | 0 mm | - | 612 W/m² | - |
| 1777840925 | 17.78° C | 35% | 1004.1 hPa | 0 mm | - | 554 W/m² | - |
| 1777840622 | 18.33° C | 35% | 1004.5 hPa | 0 mm | - | 642 W/m² | - |
| 1777840319 | 17.78° C | 37% | 1004.4 hPa | 0 mm | - | 651 W/m² | - |
| 1777840016 | 18.33° C | 33% | 1004.4 hPa | 0 mm | - | 665 W/m² | - |
| 1777839714 | 17.78° C | 35% | 1004.5 hPa | 0 mm | - | 668 W/m² | - |
| 1777839412 | 17.78° C | 39% | 1004.6 hPa | 0 mm | - | 646 W/m² | - |
| 1777839109 | 17.78° C | 35% | 1004.6 hPa | 0 mm | - | 692 W/m² | - |
| 1777838805 | 17.78° C | 37% | 1004.7 hPa | 0 mm | - | 696 W/m² | - |
| 1777838501 | 17.78° C | 37% | 1004.7 hPa | 0 mm | - | 699 W/m² | - |
| 1777838199 | 17.78° C | 34% | 1004.8 hPa | 0 mm | - | 710 W/m² | - |
| 1777837896 | 17.78° C | 37% | 1004.8 hPa | 0 mm | - | 715 W/m² | - |
| 1777837593 | 17.78° C | 36% | 1005 hPa | 0 mm | - | 722 W/m² | - |
| 1777837288 | 17.22° C | 43% | 1004.9 hPa | 0 mm | - | 729 W/m² | - |
| 1777836985 | 17.22° C | 33% | 1004.9 hPa | 0 mm | - | 737 W/m² | - |
| 1777836680 | 17.78° C | 37% | 1005 hPa | 0 mm | - | 565 W/m² | - |
| 1777836376 | 17.22° C | 34% | 1005.1 hPa | 0 mm | - | 539 W/m² | - |
| 1777836072 | 16.67° C | 37% | 1005.2 hPa | 0 mm | - | 700 W/m² | - |
| 1777835769 | 17.22° C | 38% | 1005.1 hPa | 0 mm | - | 761 W/m² | - |
| 1777835466 | 17.22° C | 38% | 1005.2 hPa | 0 mm | - | 732 W/m² | - |
| 1777835163 | 16.67° C | 40% | 1005.5 hPa | 0 mm | - | 496 W/m² | - |
* Rain latest hour (hover to see other rain measurements)
** Current wind speed in m/s (hover to see current wind gust speed)